• In Netherlands
  • List of Countries
  • For 7 days
  • Water Temperature
  • Satellite Maps
  • Weather Map
  • Weather Widgets
  • user-avatar
    Login

    Hourly Weather Sumgayit

    Today, 29 March, Wednesday

    Time Temperature Precipitation Wind Pressure Humidity
    00:00 +4°C° 0 mm 7 mps 740 mmHg 80%
    01:00 +4°C° 0 mm 7 mps 739 mmHg 76%
    02:00 +4°C° 0 mm 7 mps 739 mmHg 72%
    03:00 +4°C° 0 mm 7 mps 738 mmHg 68%
    04:00 +4°C° 0 mm 7 mps 738 mmHg 62%
    05:00 +3°C° 0 mm 7 mps 738 mmHg 57%
    06:00 +3°C° 0 mm 7 mps 738 mmHg 51%
    07:00 +7°C° 0 mm 6 mps 739 mmHg 45%
    08:00 +9°C° 0 mm 6 mps 739 mmHg 38%
    09:00 +11°C° 0 mm 6 mps 740 mmHg 32%
    10:00 +13°C° 0 mm 6 mps 740 mmHg 32%
    11:00 +14°C° 0 mm 6 mps 741 mmHg 33%
    12:00 +15°C° 0 mm 6 mps 741 mmHg 33%
    13:00 +14°C° 0 mm 6 mps 741 mmHg 36%
    14:00 +14°C° 0 mm 6 mps 741 mmHg 38%
    15:00 +14°C° 0 mm 6 mps 741 mmHg 41%
    16:00 +12°C° 0 mm 5 mps 742 mmHg 48%
    17:00 +10°C° 0 mm 5 mps 743 mmHg 55%
    18:00 +8°C° 0 mm 5 mps 743 mmHg 62%
    19:00 +8°C° 0 mm 4 mps 744 mmHg 66%
    20:00 +8°C° 0 mm 3 mps 745 mmHg 70%
    21:00 +7°C° 0 mm 3 mps 746 mmHg 74%
    22:00 +7°C° 0 mm 2 mps 746 mmHg 76%
    23:00 +7°C° 0 mm 2 mps 746 mmHg 78%

    Tomorrow, 30 March, Thursday

    Time Temperature Precipitation Wind Pressure Humidity
    00:00 +7°C° 0 mm 1 mps 747 mmHg 81%
    01:00 +7°C° 0 mm 1 mps 747 mmHg 81%
    02:00 +6°C° 0 mm 2 mps 746 mmHg 81%
    03:00 +6°C° 0 mm 2 mps 746 mmHg 81%
    04:00 +6°C° 0 mm 2 mps 746 mmHg 81%
    05:00 +5°C° 0 mm 3 mps 746 mmHg 80%
    06:00 +5°C° 0 mm 3 mps 747 mmHg 80%
    07:00 +7°C° 0 mm 4 mps 746 mmHg 74%
    08:00 +8°C° 0 mm 5 mps 746 mmHg 68%
    09:00 +10°C° 0 mm 6 mps 746 mmHg 63%
    10:00 +11°C° 0 mm 7 mps 746 mmHg 60%
    11:00 +11°C° 0 mm 7 mps 745 mmHg 57%
    12:00 +12°C° 0 mm 7 mps 744 mmHg 54%
    13:00 +13°C° 0 mm 8 mps 743 mmHg 53%
    14:00 +13°C° 0 mm 8 mps 742 mmHg 52%
    15:00 +13°C° 0 mm 8 mps 741 mmHg 51%
    16:00 +12°C° 0 mm 7 mps 741 mmHg 54%
    17:00 +11°C° 0 mm 7 mps 741 mmHg 57%
    18:00 +10°C° 0 mm 6 mps 740 mmHg 61%
    19:00 +10°C° 0 mm 6 mps 740 mmHg 63%
    20:00 +9°C° 0 mm 6 mps 740 mmHg 65%
    21:00 +9°C° 0 mm 6 mps 740 mmHg 67%
    22:00 +9°C° 0 mm 5 mps 740 mmHg 68%
    23:00 +8°C° 0 mm 5 mps 740 mmHg 69%

    Day after tomorrow, 31 March, Friday

    Time Temperature Precipitation Wind Pressure Humidity
    00:00 +8°C° 0 mm 4 mps 739 mmHg 70%
    01:00 +8°C° 0 mm 4 mps 739 mmHg 65%
    02:00 +8°C° 0 mm 4 mps 739 mmHg 61%
    03:00 +9°C° 0 mm 3 mps 739 mmHg 56%
    04:00 +8°C° 0 mm 4 mps 740 mmHg 54%
    05:00 +8°C° 0 mm 4 mps 740 mmHg 53%
    06:00 +8°C° 0 mm 4 mps 740 mmHg 51%
    07:00 +10°C° 0 mm 6 mps 741 mmHg 50%
    08:00 +11°C° 0 mm 7 mps 742 mmHg 49%
    09:00 +13°C° 0 mm 8 mps 743 mmHg 47%
    10:00 +13°C° 0 mm 9 mps 743 mmHg 50%
    11:00 +13°C° 0 mm 10 mps 743 mmHg 52%
    12:00 +14°C° 0 mm 10 mps 744 mmHg 55%
    13:00 +13°C° 0 mm 11 mps 744 mmHg 57%
    14:00 +12°C° 0 mm 12 mps 744 mmHg 60%
    15:00 +10°C° 0 mm 13 mps 744 mmHg 62%
    16:00 +8°C° 0 mm 13 mps 745 mmHg 65%
    17:00 +7°C° 0 mm 13 mps 746 mmHg 68%
    18:00 +4°C° 0 mm 13 mps 746 mmHg 71%
    19:00 +4°C° 0.1 mm 13 mps 747 mmHg 71%
    20:00 +3°C° 0.1 mm 13 mps 748 mmHg 71%
    21:00 +3°C° 0.1 mm 13 mps 749 mmHg 71%
    22:00 +1°C° 0.2 mm 13 mps 749 mmHg 73%
    23:00 +2°C° 0.2 mm 12 mps 749 mmHg 74%

    1 April, Saturday

    Time Temperature Precipitation Wind Pressure Humidity
    00:00 +2°C° 0.2 mm 12 mps 749 mmHg 75%
    01:00 +1°C° 1.1 mm 11 mps 749 mmHg 77%
    02:00 +1°C° 1.1 mm 10 mps 749 mmHg 79%
    03:00 +1°C° 1.1 mm 10 mps 749 mmHg 80%
    04:00 +1°C° 0.2 mm 9 mps 749 mmHg 81%
    05:00 +1°C° 0.2 mm 9 mps 749 mmHg 81%
    06:00 +1°C° 0.2 mm 9 mps 749 mmHg 81%
    07:00 +1°C° 0.3 mm 8 mps 750 mmHg 79%
    08:00 +1°C° 0.3 mm 8 mps 750 mmHg 78%
    09:00 +2°C° 0.3 mm 7 mps 750 mmHg 76%
    10:00 +2°C° 0.7 mm 7 mps 750 mmHg 76%
    11:00 +2°C° 0.7 mm 6 mps 749 mmHg 76%
    12:00 +3°C° 0.7 mm 5 mps 749 mmHg 76%
    13:00 +3°C° 0 mm 5 mps 748 mmHg 74%
    14:00 +5°C° 0 mm 5 mps 748 mmHg 72%
    15:00 +5°C° 0 mm 5 mps 747 mmHg 70%
    16:00 +5°C° 0 mm 4 mps 747 mmHg 71%
    17:00 +4°C° 0 mm 4 mps 747 mmHg 73%
    18:00 +4°C° 0 mm 3 mps 746 mmHg 74%
    19:00 +3°C° 0 mm 3 mps 746 mmHg 75%
    20:00 +4°C° 0 mm 2 mps 746 mmHg 77%
    21:00 +4°C° 0 mm 2 mps 746 mmHg 78%
    22:00 +4°C° 0 mm 2 mps 746 mmHg 78%
    23:00 +4°C° 0 mm 2 mps 745 mmHg 78%

    2 April, Sunday

    Time Temperature Precipitation Wind Pressure Humidity
    00:00 +4°C° 0 mm 2 mps 745 mmHg 79%
    01:00 +4°C° 0 mm 2 mps 744 mmHg 79%
    02:00 +4°C° 0 mm 2 mps 744 mmHg 79%
    03:00 +4°C° 0 mm 2 mps 744 mmHg 79%
    04:00 +4°C° 0.1 mm 2 mps 744 mmHg 80%
    05:00 +4°C° 0.1 mm 2 mps 744 mmHg 80%
    06:00 +4°C° 0.1 mm 3 mps 744 mmHg 80%
    07:00 +4°C° 0.2 mm 3 mps 744 mmHg 78%
    08:00 +5°C° 0.2 mm 3 mps 744 mmHg 76%
    09:00 +5°C° 0.2 mm 3 mps 744 mmHg 74%
    10:00 +7°C° 0.1 mm 3 mps 744 mmHg 71%
    11:00 +8°C° 0.1 mm 3 mps 744 mmHg 68%
    12:00 +8°C° 0.1 mm 3 mps 744 mmHg 65%
    13:00 +9°C° 0 mm 3 mps 744 mmHg 64%
    14:00 +9°C° 0 mm 3 mps 744 mmHg 63%
    15:00 +9°C° 0 mm 3 mps 744 mmHg 61%
    16:00 +8°C° 0 mm 3 mps 744 mmHg 63%
    17:00 +8°C° 0 mm 3 mps 744 mmHg 66%
    18:00 +7°C° 0 mm 3 mps 745 mmHg 68%
    19:00 +7°C° 0 mm 2 mps 745 mmHg 69%
    20:00 +6°C° 0 mm 2 mps 745 mmHg 70%
    21:00 +6°C° 0 mm 2 mps 745 mmHg 71%
    22:00 +7°C° 0 mm 1 mps 745 mmHg 71%
    23:00 +6°C° 0 mm 1 mps 745 mmHg 72%

    3 April, Monday

    Time Temperature Precipitation Wind Pressure Humidity
    00:00 +6°C° 0 mm 1 mps 745 mmHg 73%
    01:00 +6°C° 0 mm 1 mps 745 mmHg 72%
    02:00 +6°C° 0 mm 1 mps 745 mmHg 72%
    03:00 +5°C° 0 mm 1 mps 746 mmHg 72%
    04:00 +5°C° 0 mm 1 mps 746 mmHg 71%
    05:00 +5°C° 0 mm 2 mps 746 mmHg 70%
    06:00 +5°C° 0 mm 2 mps 747 mmHg 69%
    07:00 +6°C° 0 mm 2 mps 747 mmHg 64%
    08:00 +7°C° 0 mm 3 mps 748 mmHg 59%
    09:00 +9°C° 0 mm 3 mps 748 mmHg 53%
    10:00 +9°C° 0 mm 3 mps 748 mmHg 52%
    11:00 +10°C° 0 mm 3 mps 748 mmHg 51%
    12:00 +11°C° 0 mm 3 mps 748 mmHg 50%
    13:00 +11°C° 0 mm 3 mps 748 mmHg 49%
    14:00 +11°C° 0 mm 3 mps 748 mmHg 49%
    15:00 +11°C° 0 mm 4 mps 748 mmHg 49%
    16:00 +10°C° 0 mm 3 mps 748 mmHg 53%
    17:00 +9°C° 0 mm 3 mps 748 mmHg 56%
    18:00 +8°C° 0 mm 3 mps 748 mmHg 59%
    19:00 +7°C° 0 mm 2 mps 748 mmHg 63%
    20:00 +7°C° 0 mm 2 mps 748 mmHg 67%
    21:00 +7°C° 0 mm 1 mps 748 mmHg 71%
    22:00 +7°C° 0 mm 1 mps 748 mmHg 71%
    23:00 +6°C° 0 mm 2 mps 748 mmHg 72%
    Show more